Hourly Weather Tuzla

Today, 15 May, Saturday

Time Temperature Precipitation Wind Pressure Humidity
00:00 +9°C° 0 mm 1 mps 718 mmHg 87%
01:00 +9°C° 0 mm 1 mps 717 mmHg 88%
02:00 +9°C° 0 mm 1 mps 717 mmHg 86%
03:00 +9°C° 0 mm 1 mps 717 mmHg 85%
04:00 +9°C° 0 mm 1 mps 717 mmHg 84%
05:00 +10°C° 0 mm 1 mps 717 mmHg 80%
06:00 +11°C° 0 mm 1 mps 717 mmHg 76%
07:00 +12°C° 0 mm 0 mps 717 mmHg 72%
08:00 +14°C° 0.1 mm 1 mps 717 mmHg 70%
09:00 +14°C° 0.1 mm 1 mps 717 mmHg 67%
10:00 +15°C° 0.1 mm 1 mps 717 mmHg 65%
11:00 +16°C° 0.1 mm 1 mps 717 mmHg 67%
12:00 +16°C° 0.1 mm 1 mps 717 mmHg 68%
13:00 +16°C° 0.1 mm 1 mps 717 mmHg 70%
14:00 +16°C° 0.1 mm 1 mps 717 mmHg 71%
15:00 +16°C° 0.1 mm 1 mps 717 mmHg 72%
16:00 +15°C° 0.1 mm 1 mps 717 mmHg 73%
17:00 +14°C° 0 mm 1 mps 716 mmHg 78%
18:00 +13°C° 0 mm 1 mps 716 mmHg 83%
19:00 +12°C° 0 mm 1 mps 716 mmHg 88%
20:00 +11°C° 0 mm 1 mps 717 mmHg 89%
21:00 +11°C° 0 mm 1 mps 717 mmHg 90%
22:00 +10°C° 0 mm 1 mps 717 mmHg 91%
23:00 +9°C° 0 mm 2 mps 717 mmHg 91%

Tomorrow, 16 May, Sunday

Time Temperature Precipitation Wind Pressure Humidity
00:00 +8°C° 0 mm 2 mps 717 mmHg 91%
01:00 +8°C° 0 mm 2 mps 717 mmHg 91%
02:00 +8°C° 0 mm 2 mps 717 mmHg 92%
03:00 +8°C° 0 mm 2 mps 717 mmHg 92%
04:00 +8°C° 0 mm 2 mps 717 mmHg 92%
05:00 +9°C° 0 mm 2 mps 717 mmHg 87%
06:00 +12°C° 0 mm 1 mps 717 mmHg 83%
07:00 +13°C° 0 mm 1 mps 717 mmHg 78%
08:00 +14°C° 0 mm 2 mps 717 mmHg 73%
09:00 +15°C° 0 mm 2 mps 717 mmHg 68%
10:00 +17°C° 0 mm 2 mps 718 mmHg 63%
11:00 +17°C° 0.1 mm 3 mps 717 mmHg 60%
12:00 +18°C° 0.1 mm 3 mps 717 mmHg 58%
13:00 +19°C° 0.1 mm 3 mps 717 mmHg 55%
14:00 +19°C° 0.1 mm 3 mps 717 mmHg 59%
15:00 +19°C° 0.1 mm 3 mps 717 mmHg 62%
16:00 +18°C° 0.1 mm 2 mps 717 mmHg 66%
17:00 +17°C° 0.1 mm 2 mps 717 mmHg 70%
18:00 +16°C° 0.1 mm 1 mps 717 mmHg 75%
19:00 +14°C° 0.1 mm 1 mps 717 mmHg 80%
20:00 +14°C° 0 mm 1 mps 717 mmHg 80%
21:00 +14°C° 0 mm 1 mps 716 mmHg 81%
22:00 +13°C° 0 mm 1 mps 716 mmHg 82%
23:00 +13°C° 0.1 mm 1 mps 716 mmHg 85%

Day after tomorrow, 17 May, Monday

Time Temperature Precipitation Wind Pressure Humidity
00:00 +13°C° 0.1 mm 2 mps 716 mmHg 88%
01:00 +13°C° 0.1 mm 2 mps 716 mmHg 91%
02:00 +13°C° 0.1 mm 2 mps 716 mmHg 92%
03:00 +12°C° 0.1 mm 2 mps 715 mmHg 93%
04:00 +12°C° 0.1 mm 2 mps 715 mmHg 94%
05:00 +13°C° 0.3 mm 2 mps 715 mmHg 94%
06:00 +13°C° 0.3 mm 2 mps 715 mmHg 94%
07:00 +13°C° 0.3 mm 2 mps 716 mmHg 95%
08:00 +14°C° 0.4 mm 2 mps 716 mmHg 91%
09:00 +15°C° 0.4 mm 2 mps 716 mmHg 88%
10:00 +16°C° 0.4 mm 2 mps 716 mmHg 85%
11:00 +17°C° 0.3 mm 3 mps 716 mmHg 80%
12:00 +18°C° 0.3 mm 4 mps 716 mmHg 74%
13:00 +20°C° 0.3 mm 5 mps 716 mmHg 68%
14:00 +18°C° 0.3 mm 4 mps 717 mmHg 75%
15:00 +16°C° 0.3 mm 3 mps 717 mmHg 82%
16:00 +14°C° 0.3 mm 2 mps 717 mmHg 88%
17:00 +13°C° 0.1 mm 2 mps 717 mmHg 91%
18:00 +13°C° 0.1 mm 1 mps 717 mmHg 93%
19:00 +11°C° 0.1 mm 0 mps 717 mmHg 95%
20:00 +11°C° 0.2 mm 0 mps 718 mmHg 96%
21:00 +11°C° 0.2 mm 0 mps 718 mmHg 96%
22:00 +10°C° 0.2 mm 0 mps 718 mmHg 96%
23:00 +10°C° 0.2 mm 0 mps 718 mmHg 96%

18 May, Tuesday

Time Temperature Precipitation Wind Pressure Humidity
00:00 +10°C° 0.2 mm 0 mps 718 mmHg 96%
01:00 +10°C° 0.2 mm 0 mps 718 mmHg 96%
02:00 +10°C° 0 mm 0 mps 718 mmHg 97%
03:00 +9°C° 0 mm 0 mps 718 mmHg 97%
04:00 +10°C° 0 mm 1 mps 719 mmHg 98%
05:00 +11°C° 0 mm 1 mps 719 mmHg 97%
06:00 +11°C° 0 mm 1 mps 719 mmHg 96%
07:00 +12°C° 0 mm 1 mps 720 mmHg 95%
08:00 +13°C° 0.1 mm 1 mps 720 mmHg 90%
09:00 +14°C° 0.1 mm 1 mps 720 mmHg 86%
10:00 +15°C° 0.1 mm 1 mps 720 mmHg 81%
11:00 +15°C° 0.3 mm 1 mps 720 mmHg 80%
12:00 +16°C° 0.3 mm 1 mps 719 mmHg 78%
13:00 +16°C° 0.3 mm 1 mps 719 mmHg 76%
14:00 +18°C° 0.6 mm 1 mps 719 mmHg 77%
15:00 +17°C° 0.6 mm 2 mps 718 mmHg 77%
16:00 +17°C° 0.6 mm 2 mps 718 mmHg 78%
17:00 +15°C° 0.3 mm 2 mps 718 mmHg 80%
18:00 +14°C° 0.3 mm 2 mps 718 mmHg 82%
19:00 +13°C° 0.3 mm 2 mps 718 mmHg 85%
20:00 +12°C° 0.2 mm 1 mps 718 mmHg 86%
21:00 +12°C° 0.2 mm 1 mps 718 mmHg 88%
22:00 +11°C° 0.2 mm 1 mps 718 mmHg 90%
23:00 +11°C° 0.8 mm 1 mps 718 mmHg 92%

19 May, Wednesday

Time Temperature Precipitation Wind Pressure Humidity
00:00 +11°C° 0.8 mm 1 mps 718 mmHg 94%
01:00 +10°C° 0.8 mm 1 mps 718 mmHg 97%
02:00 +10°C° 1.9 mm 1 mps 719 mmHg 97%
03:00 +9°C° 1.9 mm 2 mps 719 mmHg 97%
04:00 +9°C° 1.9 mm 2 mps 719 mmHg 98%
05:00 +8°C° 2.4 mm 2 mps 720 mmHg 97%
06:00 +8°C° 2.4 mm 2 mps 721 mmHg 97%
07:00 +7°C° 2.4 mm 2 mps 722 mmHg 97%
08:00 +7°C° 0.8 mm 2 mps 722 mmHg 96%
09:00 +7°C° 0.8 mm 2 mps 723 mmHg 96%
10:00 +8°C° 0.8 mm 1 mps 723 mmHg 96%
11:00 +8°C° 0.3 mm 1 mps 723 mmHg 96%
12:00 +9°C° 0.3 mm 1 mps 723 mmHg 96%
13:00 +9°C° 0.3 mm 1 mps 723 mmHg 95%
14:00 +9°C° 0.1 mm 1 mps 723 mmHg 94%
15:00 +9°C° 0.1 mm 1 mps 723 mmHg 93%
16:00 +10°C° 0.1 mm 1 mps 723 mmHg 92%
17:00 +9°C° 0 mm 1 mps 723 mmHg 93%
18:00 +9°C° 0 mm 1 mps 723 mmHg 93%
19:00 +8°C° 0 mm 1 mps 723 mmHg 94%
20:00 +8°C° 0 mm 1 mps 723 mmHg 94%
21:00 +7°C° 0 mm 1 mps 724 mmHg 94%
22:00 +6°C° 0 mm 1 mps 724 mmHg 94%
23:00 +6°C° 0 mm 1 mps 724 mmHg 94%

20 May, Thursday

Time Temperature Precipitation Wind Pressure Humidity
00:00 +6°C° 0 mm 1 mps 724 mmHg 94%
01:00 +6°C° 0 mm 1 mps 724 mmHg 94%
02:00 +5°C° 0 mm 1 mps 724 mmHg 93%
03:00 +5°C° 0 mm 1 mps 725 mmHg 93%
04:00 +5°C° 0 mm 1 mps 725 mmHg 93%
05:00 +7°C° 0 mm 1 mps 725 mmHg 91%
06:00 +8°C° 0 mm 1 mps 726 mmHg 89%
07:00 +9°C° 0 mm 1 mps 726 mmHg 88%
08:00 +10°C° 0 mm 1 mps 726 mmHg 84%
09:00 +10°C° 0 mm 1 mps 726 mmHg 81%
10:00 +11°C° 0 mm 1 mps 726 mmHg 78%
11:00 +13°C° 0 mm 1 mps 726 mmHg 69%
12:00 +15°C° 0 mm 1 mps 726 mmHg 60%
13:00 +18°C° 0 mm 1 mps 725 mmHg 52%
14:00 +18°C° 0 mm 1 mps 725 mmHg 51%
15:00 +18°C° 0 mm 1 mps 725 mmHg 50%
16:00 +18°C° 0 mm 1 mps 724 mmHg 48%
17:00 +15°C° 0 mm 1 mps 724 mmHg 59%
18:00 +13°C° 0 mm 1 mps 724 mmHg 69%
19:00 +11°C° 0 mm 1 mps 724 mmHg 79%
20:00 +10°C° 0 mm 1 mps 724 mmHg 79%
21:00 +10°C° 0 mm 1 mps 724 mmHg 80%
22:00 +8°C° 0 mm 2 mps 724 mmHg 80%
23:00 +8°C° 0 mm 2 mps 724 mmHg 78%
Show more